Home > Time Zones > World Clock > Weather > Japan > Naha > Past weeks

Flag Weather past 2 weeks in Naha, Okinawa, Japan

Now
72 °F

Passing clouds.


Feels Like: 75 °F
Forecast: 71 / 78 °F
Wind: 6 mph from Southeast

Location: Naha Airport

Current Time: Nov 24, 2014 at 2:31:22 AM

Latest Report: Nov 24, 2014 at 2:00 AM


Visibility: N/A

Pressure: 30.07 "Hg

Humidity: 65%

Dew point: 59 °F

Location of NahaLocation

Historic Weather in Naha — Graph

°F

Naha temperature yesterday

Maximum temperature yesterday: 79 °F (at 1:00 PM)
Minimum temperature yesterday: 72 °F (at 12:00 AM)
Average temperature yesterday: 74 °F

Past Weeks' High & Low Weather Summary

 TemperatureHumidityPressure
High81 °F (Nov 9, 1:00 PM)94% (Nov 9, 1:00 AM)30.24 "Hg (Nov 9, 1:00 AM)
Low64 °F (Nov 21, 4:30 AM)41% (Nov 19, 10:00 AM)29.92 "Hg (Nov 11, 1:00 PM)
Average72 °F62%30.08 "Hg
* Reported Nov 9 1:00 AM — Nov 24 1:30 AM, Naha, Weather by CustomWeather, © 2014

Note: Actual official high and low records may vary slightly from our data, if they occured in-between our weather recording intervals... More about our weather records

Advertising

Naha weather history for previous 24 hours

 ConditionsComfort  
Time TempWeatherWind HumidityBarometerVisibility
1:30 AM
Nov 24
72 °FPassing clouds.7 mph65%30.07 "HgN/A
1:00 AM73 °FPassing clouds.8 mph61%30.07 "HgN/A
12:30 AM73 °FPassing clouds.8 mph65%30.09 "HgN/A
12:00 AM73 °FPassing clouds.6 mph65%30.09 "HgN/A
11:30 PM
Nov 23
73 °FPassing clouds.5 mph65%30.09 "HgN/A
11:00 PM73 °FPassing clouds.6 mph65%30.09 "HgN/A
10:30 PM73 °FPassing clouds.5 mph65%30.09 "HgN/A
10:00 PM73 °FPassing clouds.6 mph65%30.09 "HgN/A
9:30 PM73 °FPassing clouds.7 mph65%30.09 "HgN/A
9:00 PM73 °FPassing clouds.8 mph65%30.09 "HgN/A
8:30 PM73 °FPassing clouds.8 mph65%30.07 "HgN/A
8:00 PM73 °FScattered showers. Passing clouds.8 mph69%30.07 "HgN/A
7:30 PM73 °FPassing clouds.7 mph65%30.07 "HgN/A
7:00 PM73 °FPassing clouds.7 mph65%30.07 "HgN/A
6:30 PM73 °FPassing clouds.7 mph65%30.07 "HgN/A
6:00 PM73 °FPassing clouds.7 mph65%30.07 "HgN/A
5:30 PM75 °FPassing clouds.9 mph61%30.07 "HgN/A
5:00 PM75 °FPassing clouds.9 mph61%30.04 "HgN/A
4:30 PM75 °FPassing clouds.10 mph61%30.04 "HgN/A
4:00 PM75 °FPassing clouds.13 mph65%30.04 "HgN/A
3:30 PM77 °FPassing clouds.13 mph57%30.04 "HgN/A
3:00 PM77 °FPassing clouds.14 mph61%30.04 "HgN/A
2:30 PM77 °FScattered clouds.12 mph61%30.04 "HgN/A
2:00 PM77 °FPassing clouds.13 mph65%30.04 "HgN/A
1:30 PM77 °FPassing clouds.12 mph61%30.07 "HgN/A
1:00 PM79 °FScattered clouds.13 mph58%30.07 "HgN/A
12:30 PM77 °FPassing clouds.13 mph61%30.09 "HgN/A
12:00 PM77 °FScattered clouds.12 mph61%30.09 "HgN/A
11:30 AM77 °FPassing clouds.13 mph61%30.09 "HgN/A
11:00 AM77 °FPassing clouds.12 mph57%30.12 "HgN/A
10:30 AM75 °FPassing clouds.13 mph61%30.12 "HgN/A
10:00 AM77 °FPassing clouds.12 mph57%30.12 "HgN/A
9:30 AM75 °FPassing clouds.12 mph61%30.12 "HgN/A
9:00 AM75 °FPassing clouds.9 mph61%30.12 "HgN/A
8:30 AM73 °FPassing clouds.7 mph65%30.12 "HgN/A
8:00 AM73 °FPassing clouds.5 mph65%30.12 "HgN/A
7:30 AM72 °FPassing clouds.5 mph69%30.09 "HgN/A
7:00 AM72 °FPassing clouds.7 mph69%30.09 "HgN/A
6:30 AM72 °FPassing clouds.7 mph69%30.07 "HgN/A
6:00 AM72 °FPassing clouds.6 mph69%30.07 "HgN/A
5:30 AM72 °FPassing clouds.3 mph69%30.07 "HgN/A
5:00 AM72 °FPassing clouds.3 mph69%30.07 "HgN/A
4:30 AM72 °FPassing clouds.5 mph69%30.07 "HgN/A
4:00 AM72 °FPassing clouds.5 mph73%30.07 "HgN/A
3:30 AM72 °FPassing clouds.3 mph73%30.07 "HgN/A
3:00 AM72 °FSprinkles. Passing clouds.5 mph73%30.07 "HgN/A
2:30 AM72 °FPassing clouds.2 mph69%30.07 "HgN/A
2:00 AM72 °FPassing clouds.5 mph69%30.07 "HgN/A
Weather by CustomWeather, © 2014

See weather overviewHow to use our weather pages